Location: Gibiat
(45.3786°N, 2.1076°E)
Time: 01:12:47
(UTC+00:00)

Daily predictions for brighter satellites

Satellite Brightness Start Highest point End
(mag) Time Altitude Azimuth Time Altitude Azimuth Time Altitude Azimuth
ADEOS II 4.4 02:16:10 10° NNE 02:17:29 18° NNE 02:17:29 18° NNE
USA 234 4.2 02:20:03 10° ESE 02:24:10 40° E 02:24:10 40° E
Lacrosse 5 4.1 02:40:09 21° E 02:40:09 21° E 02:42:02 10° E
Cosmos 2082 Rocket 4.2 02:42:36 20° N 02:42:36 20° N 02:44:44 10° N
Cosmos 2333 Rocket 4.3 02:39:47 10° N 02:44:26 24° NE 02:49:04 10° ESE
Cosmos 2219 Rocket 4.2 02:54:46 10° N 02:59:29 26° NE 03:04:11 10° ESE
CZ-2C R/B 4.1 02:58:13 10° NE 03:02:02 27° E 03:02:02 27° E
USA 238 DEB 4.3 03:06:29 10° NW 03:13:38 60° NE 03:21:04 10° SE
USA 238 4.3 03:06:35 10° NW 03:13:44 60° NE 03:21:10 10° SE
ATLAS 5 CENTAUR R/B 4.1 03:19:17 12° ESE 03:19:47 13° ESE 03:21:36 10° E
S3M 3.9 03:21:13 75° ESE 03:21:29 76° E 03:27:41 10° N
ARIANE 5 R/B 3.6 03:20:20 10° N 03:23:22 36° N 03:23:22 36° N
Cosmos 1745 Rocket 3.9 03:19:37 10° N 03:25:58 87° ENE 03:26:31 76° SSE
USA 267 3.4 03:28:43 10° NE 03:35:06 58° NNW 03:35:57 54° WNW
Cosmos 2322 4.3 03:31:13 10° NNW 03:36:50 56° ENE 03:42:23 10° SE
Cosmos 1709 Rocket 4.4 03:31:21 10° N 03:37:43 65° E 03:44:01 10° SSE
H-2A R/B 4.2 03:38:31 10° ESE 03:41:57 25° ENE 03:45:22 10° N
NOSS 3-2 (A) 4.0 03:34:52 10° NW 03:42:27 86° SW 03:51:03 10° SSE
Spot 4 Rocket 4.2 03:41:59 10° N 03:46:28 61° NNW 03:46:28 61° NNW
COSMOS 2487 4.2 03:50:12 29° NE 03:50:12 29° NE 03:52:02 10° NNE
Cosmos 2344 3.4 03:46:42 52° SW 03:48:46 82° NW 03:56:45 10° NE
Cosmos 1833 4.0 03:48:29 76° SW 03:48:55 84° WNW 03:54:36 10° NNE
Cosmos 1386 Rocket 4.4 03:46:37 10° NNW 03:52:55 62° W 03:53:42 57° SW
CENTAUR R/B 3.2 03:45:22 10° NW 03:53:31 82° NE 04:02:28 10° SE
Cosmos 2251 Rocket 3.5 03:53:53 57° S 03:55:00 82° ESE 04:00:24 10° NNE
ISS -2.3 04:00:41 36° NE 04:00:41 36° NE 04:03:19 10° E
Cosmos 2360 Rocket 3.9 04:04:24 17° S 04:04:24 17° S 04:05:41 10° S
ADEOS II 4.3 03:57:39 10° NNW 03:58:26 12° NNW 03:58:26 12° NNW
IDEFIX/ARIANE 42P 4.1 03:57:52 10° N 04:00:31 22° NW 04:00:31 22° NW
Meteor 2-17 Rocket 4.4 03:57:01 10° N 04:03:07 83° E 04:09:10 10° S
ALOS 2.8 03:59:01 10° NNE 04:03:38 56° E 04:07:02 18° S
PAYLOAD A 4.0 03:58:34 10° N 04:03:53 72° WNW 04:05:04 54° SW
CZ-2C R/B 4.1 04:02:07 10° N 04:04:15 29° N 04:04:15 29° N
Cosmos 2237 Rocket 4.2 04:02:26 10° N 04:07:17 28° NE 04:12:06 10° ESE
Cosmos 2333 4.1 04:02:10 10° NNW 04:07:58 79° WSW 04:13:45 10° SSE
USA 234 3.4 04:03:13 10° SSE 04:09:32 50° SW 04:11:34 38° W
CZ-4C R/B 2.5 04:10:13 29° S 04:12:34 57° ESE 04:18:12 10° NE
Cosmos 883 Rocket 4.3 04:11:11 31° SSW 04:14:17 69° W 04:20:24 10° N
USA 276 2.8 04:16:02 51° NE 04:16:02 51° NE 04:18:38 10° ENE
PSLV R/B 3.4 04:11:54 10° N 04:16:17 78° WNW 04:17:21 51° SSW
Lacrosse 5 1.8 04:19:24 47° W 04:20:33 60° SW 04:25:31 10° SSE
NOSS 3-4 (A) 3.8 04:16:30 20° SSW 04:20:33 60° ESE 04:26:40 10° NE
NOSS 3-4 (C) 3.8 04:16:34 19° SSW 04:20:40 59° ESE 04:26:46 10° NE
NOSS 3-2 (C) 4.0 04:16:54 10° NW 04:24:30 78° SW 04:33:05 10° SSE
GPS 2-04 Rocket1 4.4 04:26:32 18° S 04:26:32 18° S 04:29:00 10° SE
Cosmos 2221 4.3 04:30:19 18° NW 04:30:19 18° NW 04:32:00 10° NNW
Cosmos 2333 Rocket 2.1 04:23:29 10° NNW 04:29:13 67° WSW 04:34:55 10° SSE
Cosmos 1484 Rocket 2.5 04:29:30 10° NNE 04:33:14 87° WNW 04:35:27 23° SSW
Cosmos 1437 Rocket 3.7 04:29:41 10° S 04:33:36 50° E 04:37:30 10° NNE
Cosmos 1805 Rocket 3.7 04:29:32 10° NNW 04:33:52 49° W 04:38:08 10° SSW
ATLAS 2AS CENTAUR R/B 3.6 04:28:05 10° SSW 04:35:45 58° ESE 04:43:23 10° NE
Landsat 5 3.3 04:32:23 10° S 04:36:07 52° W 04:39:58 10° NNW
SJ-6F 4.3 04:32:35 10° N 04:36:47 81° WNW 04:40:19 14° SSW
Cosmos 2315 Rocket 4.1 04:34:41 15° SSW 04:39:43 54° WNW 04:45:48 10° N
CZ-4B R/B 3.2 04:37:37 10° SE 04:40:22 30° ENE 04:43:07 10° N
CZ-2C R/B 2.9 04:36:16 10° N 04:40:32 34° WNW 04:41:25 31° W
COSMO-SKYMED 1 3.5 04:37:07 10° SSE 04:41:19 51° ENE 04:45:33 10° N
Cosmos 2297 Rocket 4.0 04:36:27 10° SSE 04:41:23 32° ESE 04:46:20 10° NE
Cosmos 1782 3.3 04:39:41 10° S 04:43:34 59° E 04:47:28 10° NNE
Cosmos 2219 Rocket 2.2 04:38:16 10° NNW 04:43:50 59° WSW 04:49:23 10° S
Cosmos 1606 3.8 04:47:57 27° WNW 04:47:57 27° WNW 04:51:00 10° NNW
CBERS 1 LM4 rocket 4.2 04:43:34 10° N 04:48:20 72° WNW 04:53:02 10° SSW
Cosmos 1140 Rocket 3.6 04:43:50 10° SSW 04:49:02 79° ESE 04:54:14 10° NNE
Sich 1 3.3 04:46:19 10° NNW 04:50:29 43° W 04:54:37 10° SSW
Meteor 1-26 Rocket 4.4 04:46:32 10° S 04:52:15 83° E 04:58:12 10° NNE
Cosmos 1980 4.3 04:46:55 10° NNW 04:52:32 59° ENE 04:58:07 10° SE
METEOR-M 4.1 04:49:03 10° N 04:54:22 68° WNW 04:59:39 10° SSW
Cosmos 1666 Rocket 3.5 04:53:23 10° NNW 04:57:41 59° W 05:02:01 10° S
Cosmos 2074 Rocket 3.9 04:52:20 10° N 04:58:34 82° W 05:04:46 10° S
MOS 1 Rocket 3.2 04:56:01 10° SSE 05:00:25 88° ENE 05:05:06 10° NNW
COSMOS 2428 2.8 04:54:57 10° NW 05:00:28 52° WSW 05:05:59 10° S
Cosmos 1023 Rocket 4.4 04:55:34 10° SSW 05:00:46 80° WNW 05:05:58 10° NNE
SeaSat 1 2.5 04:55:53 10° SSE 05:00:48 86° ENE 05:05:46 10° NNW
BREEZE M DEB (TANK) 2.6 04:59:34 21° WNW 05:01:23 69° NNE 05:08:30 10° ESE
BREEZE-M DEB (TANK) 3.3 05:00:37 19° WNW 05:03:26 42° N 05:05:50 10° ENE
CZ-4C R/B 4.4 05:04:29 20° WNW 05:04:29 20° WNW 05:06:16 10° NW
ATLAS 5 CENTAUR R/B 1.4 05:00:51 19° SW 05:03:35 67° NW 05:08:03 10° NE
USA 238 DEB 4.4 04:57:49 10° NW 05:04:22 37° WSW 05:11:07 10° S
USA 238 4.4 04:57:55 10° NW 05:04:29 37° WSW 05:11:15 10° S
Cosmos 2154 Rocket 4.2 04:59:46 10° N 05:06:02 77° E 05:12:18 10° SSE
ATLAS 3B R/B 3.4 05:01:36 10° NNW 05:08:28 58° NE 05:15:38 10° SE
CZ-4B R/B 3.5 05:05:22 10° N 05:09:02 68° WNW 05:12:38 10° SSW
ADEOS 3.5 05:04:25 10° N 05:09:40 74° WNW 05:14:52 10° SSW
Cosmos 1602 3.8 05:07:34 10° NNW 05:11:25 52° W 05:15:12 10° S
FENGYUN 3A 4.3 05:10:28 10° N 05:15:22 35° WNW 05:20:14 10° SW
USA 267 4.3 05:11:39 10° NE 05:17:22 34° N 05:23:05 10° WNW
H-2A R/B 2.7 05:14:02 10° SSW 05:17:48 31° W 05:21:33 10° NW
Cosmos 1151 Rocket 3.3 05:15:11 10° SSW 05:19:19 45° WNW 05:23:28 10° N
Cosmos 909 Rocket 4.4 05:14:58 11° WSW 05:20:57 46° NW 05:27:01 10° NNE
Cosmos 2219 3.7 05:15:35 10° S 05:21:09 63° ESE 05:26:44 10° NNE
NOSS 0 Rocket 4.0 05:18:18 10° NNW 05:24:23 61° WSW 05:30:27 10° S
Cosmos 2184 Rocket 4.1 05:19:17 10° NNW 05:25:26 54° W 05:31:36 10° SSW
Meteor 2-12 Rocket 4.5 05:19:37 10° N 05:25:48 87° W 05:31:59 10° S
Cosmos 1633 Rocket 3.7 05:24:43 10° NNW 05:28:41 33° W 05:32:37 10° SSW
SKYMED 2 3.7 05:25:09 10° S 05:29:22 50° W 05:33:36 10° NNW
USA-17 4.4 05:28:09 10° SW 05:32:02 81° NW 05:35:12 10° NE
H-2A R/B 2.7 05:30:17 10° N 05:34:12 80° WNW 05:38:04 10° SSW
Cosmos 1242 Rocket 2.4 05:30:59 10° S 05:34:26 90° WNW 05:37:57 10° N
ISS -3.3 05:33:45 10° WNW 05:36:59 45° SW 05:40:13 10° SE
Cosmos 1812 2.6 05:35:49 10° SSW 05:39:38 72° W 05:43:29 10° N
ALOS 3.7 05:37:25 10° NNW 05:40:37 19° WNW 05:43:48 10° WSW
CZ-2C R/B 3.5 05:35:58 10° SSE 05:41:29 59° ENE 05:46:58 10° N
CENTAUR R/B 4.0 05:36:53 10° NW 05:43:48 29° WSW 05:51:04 10° SSW
BREEZE-M DEB (TANK) 4.0 05:42:57 10° NW 05:44:34 19° NNE 05:46:37 10° ENE
Meteor 1-11 Rocket 4.3 05:39:13 10° N 05:44:43 63° ENE 05:50:15 10° SSE
Meteor 1-31 Rocket 3.8 05:42:21 10° N 05:45:37 26° WNW 05:48:52 10° SW
Meteor 1-14 Rocket 4.5 05:41:17 10° NNW 05:46:44 49° W 05:52:15 10° SSW
Cosmos 1954 Rocket 4.1 05:42:34 10° SSW 05:47:47 61° WNW 05:52:59 10° NNE
RESURS DK-1 2.3 05:44:04 10° SSW 05:48:11 84° WNW 05:52:21 10° NNE
SAR-Lupe-4 3.6 05:46:39 10° SSE 05:50:13 90° WNW 05:53:49 10° NNW
Cosmos 2237 Rocket 2.4 05:46:08 10° NW 05:51:40 54° WSW 05:57:07 10° S
Cosmos 1869 Rocket 4.1 05:47:14 10° N 05:51:42 68° E 05:56:09 10° SSE
